Overview Statistics Trail Chart Weather Telemetry Raw packets
 

This is the latest recevied weather packets stored in our database for station/object W7TRD. If no packets are shown the sender has not sent any weather packets the latest 10 day(s).

<< 46 47 48 49 50 51 52 >>
Time Temp. Humidity Pressure Rain* Wind** Luminosity Snow
1788306229 20.56° C 65% 1011.9 hPa 0 mm - 136 W/m² -
1788305925 20.56° C 67% 1012 hPa 0 mm - 149 W/m² -
1788305620 20.56° C 65% 1012 hPa 0 mm - 192 W/m² -
1788305316 20.56° C 67% 1012.1 hPa 0 mm - 186 W/m² -
1788305011 20.56° C 65% 1012.1 hPa 0 mm - 209 W/m² -
1788304707 20.56° C 66% 1012.3 hPa 0 mm - 197 W/m² -
1788304403 20.56° C 66% 1012.1 hPa 0 mm - 192 W/m² -
1788304099 20.56° C 65% 1012 hPa 0 mm - 199 W/m² -
1788303798 20.56° C 67% 1012.1 hPa 0 mm - 192 W/m² -
1788303494 20.56° C 68% 1012.3 hPa 0 mm - 177 W/m² -
1788303193 20.56° C 67% 1012.2 hPa 0 mm - 245 W/m² -
1788302889 20.56° C 66% 1012.1 hPa 0 mm - 259 W/m² -
1788302585 20.56° C 66% 1012.2 hPa 0 mm - 275 W/m² -
1788302282 20.56° C 66% 1012.3 hPa 0 mm - 222 W/m² -
1788301981 20° C 67% 1012.1 hPa 0 mm - 239 W/m² -
1788301677 20° C 68% 1012.4 hPa 0 mm - 191 W/m² -
1788301374 19.44° C 69% 1012.3 hPa 0 mm - 168 W/m² -
1788301069 19.44° C 68% 1012.5 hPa 0 mm - 112 W/m² -
1788300764 20° C 69% 1012.3 hPa 0 mm - 171 W/m² -
1788300465 19.44° C 69% 1012.2 hPa 0 mm - 227 W/m² -
1788300164 19.44° C 69% 1012.4 hPa 0 mm - 204 W/m² -
1788299863 19.44° C 69% 1012.2 hPa 0 mm - 104 W/m² -
1788299563 19.44° C 68% 1012.2 hPa 0 mm - 101 W/m² -
1788299261 19.44° C 69% 1012.1 hPa 0 mm - 80 W/m² -
1788298960 20° C 68% 1012.2 hPa 0 mm - 146 W/m² -

* Rain latest hour (hover to see other rain measurements)
** Current wind speed in m/s (hover to see current wind gust speed)